| time (UTC) | temp F | wind direction | speed knots | gust knots | rain 1hr in | rain 24hr in | rain mn in | humidity % | barometer mb |
| 20260906093128 | 70 | 52 | 0.9 | 1.7 | 0.00 | 0.00 | 0.00 | 91 | 1013.4 |
| 20260906092632 | 70 | 52 | 0.9 | 1.7 | 0.00 | 0.00 | 0.00 | 91 | 1013.3 |
| 20260906092126 | 70 | 53 | 0.0 | 1.7 | 0.00 | 0.00 | 0.00 | 91 | 1013.3 |
| 20260906091613 | 70 | 46 | 0.0 | 1.7 | 0.00 | 0.00 | 0.00 | 90 | 1013.3 |
| 20260906091113 | 70 | 46 | 0.9 | 1.7 | 0.00 | 0.00 | 0.00 | 90 | 1013.3 |
| 20260906090613 | 70 | 50 | 0.9 | 2.6 | 0.00 | 0.00 | 0.00 | 90 | 1013.3 |
| 20260906090112 | 70 | 59 | 0.9 | 2.6 | 0.00 | 0.00 | 0.00 | 90 | 1013.3 |
| 20260906090057 | 71 | 61 | 0.9 | 2.6 | 0.00 | 0.00 | 0.00 | 90 | 1013.2 |
| 20260906085114 | 71 | 49 | 0.9 | 2.6 | 0.00 | 0.00 | 0.00 | 90 | 1013.2 |
| 20260906084613 | 71 | 47 | 0.0 | 2.6 | 0.00 | 0.00 | 0.00 | 90 | 1013.2 |
| 20260906084112 | 71 | 40 | 0.0 | 0.0 | 0.00 | 0.00 | 0.00 | 90 | 1013.3 |
| 20260906083613 | 71 | 63 | 0.0 | 0.9 | 0.00 | 0.00 | 0.00 | 89 | 1013.3 |
| 20260906083110 | 71 | 58 | 0.0 | 3.5 | 0.00 | 0.00 | 0.00 | 89 | 1013.3 |
| 20260906082557 | 72 | 47 | 0.9 | 3.5 | 0.00 | 0.00 | 0.00 | 89 | 1013.4 |
| 20260906082058 | 72 | 56 | 1.7 | 4.3 | 0.00 | 0.00 | 0.00 | 89 | 1013.4 |
| 20260906081551 | 72 | 78 | 1.7 | 6.1 | 0.00 | 0.00 | 0.00 | 89 | 1013.4 |
| 20260906081044 | 72 | 55 | 1.7 | 6.1 | 0.00 | 0.00 | 0.00 | 88 | 1013.5 |
| 20260906080539 | 72 | 60 | 1.7 | 4.3 | 0.00 | 0.00 | 0.00 | 88 | 1013.5 |
| 20260906080028 | 72 | 49 | 0.9 | 3.5 | 0.00 | 0.00 | 0.00 | 88 | 1013.5 |
| 20260906075527 | 72 | 26 | 1.7 | 4.3 | 0.00 | 0.00 | 0.00 | 88 | 1013.5 |
| 20260906075508 | 73 | 26 | 1.7 | 4.3 | 0.00 | 0.00 | 0.00 | 88 | 1013.5 |
| 20260906074514 | 73 | 61 | 1.7 | 3.5 | 0.00 | 0.00 | 0.00 | 88 | 1013.5 |
| 20260906074008 | 73 | 28 | 0.9 | 3.5 | 0.00 | 0.00 | 0.00 | 87 | 1013.5 |
| 20260906073504 | 73 | 58 | 0.9 | 6.1 | 0.00 | 0.00 | 0.00 | 87 | 1013.5 |
| 20260906072957 | 72 | 17 | 1.7 | 6.1 | 0.00 | 0.00 | 0.00 | 87 | 1013.4 |
| 20260906072447 | 72 | 64 | 1.7 | 4.3 | 0.00 | 0.00 | 0.00 | 87 | 1013.4 |
| 20260906072203 | 72 | 29 | 1.7 | 6.1 | 0.00 | 0.00 | 0.00 | 88 | 1013.4 |
| 20260906071439 | 72 | 72 | 1.7 | 6.1 | 0.00 | 0.00 | 0.00 | 88 | 1013.5 |
| 20260906071153 | 72 | 51 | 1.7 | 4.3 | 0.00 | 0.00 | 0.00 | 88 | 1013.5 |
| 20260906070426 | 72 | 50 | 1.7 | 7.0 | 0.00 | 0.00 | 0.00 | 88 | 1013.5 |
| 20260906065915 | 72 | 61 | 1.7 | 7.0 | 0.00 | 0.00 | 0.00 | 88 | 1013.5 |
| 20260906065414 | 72 | 24 | 2.6 | 6.1 | 0.00 | 0.00 | 0.00 | 88 | 1013.5 |
| 20260906064909 | 72 | 41 | 2.6 | 7.0 | 0.00 | 0.00 | 0.00 | 88 | 1013.5 |
| 20260906064403 | 72 | 69 | 2.6 | 7.8 | 0.00 | 0.00 | 0.00 | 88 | 1013.5 |
| 20260906063857 | 72 | 77 | 3.5 | 9.6 | 0.00 | 0.00 | 0.00 | 88 | 1013.5 |
| 20260906063351 | 73 | 63 | 3.5 | 9.6 | 0.00 | 0.00 | 0.00 | 88 | 1013.5 |
| 20260906062846 | 73 | 28 | 3.5 | 7.8 | 0.00 | 0.00 | 0.00 | 88 | 1013.5 |
| 20260906062336 | 73 | 81 | 3.5 | 7.8 | 0.00 | 0.00 | 0.00 | 88 | 1013.5 |
| 20260906061836 | 73 | 58 | 3.5 | 7.8 | 0.00 | 0.00 | 0.00 | 88 | 1013.5 |
| 20260906061336 | 73 | 59 | 3.5 | 7.0 | 0.00 | 0.00 | 0.00 | 88 | 1013.4 |
| 20260906060836 | 73 | 61 | 2.6 | 7.0 | 0.00 | 0.00 | 0.00 | 88 | 1013.4 |
| 20260906060336 | 73 | 51 | 2.6 | 7.0 | 0.00 | 0.00 | 0.00 | 88 | 1013.4 |
| 20260906055836 | 73 | 45 | 2.6 | 7.0 | 0.00 | 0.00 | 0.00 | 87 | 1013.4 |
| 20260906055337 | 73 | 38 | 2.6 | 4.3 | 0.00 | 0.00 | 0.00 | 87 | 1013.4 |
| 20260906055100 | 73 | 5 | 2.6 | 6.1 | 0.00 | 0.00 | 0.00 | 87 | 1013.4 |
| 20260906054334 | 73 | 55 | 2.6 | 8.7 | 0.00 | 0.00 | 0.00 | 87 | 1013.3 |
| 20260906053835 | 73 | 18 | 2.6 | 8.7 | 0.00 | 0.00 | 0.00 | 87 | 1013.3 |
| 20260906053335 | 73 | 32 | 2.6 | 7.0 | 0.00 | 0.00 | 0.00 | 87 | 1013.3 |
| 20260906052835 | 73 | 57 | 2.6 | 7.0 | 0.00 | 0.00 | 0.00 | 87 | 1013.1 |
| 20260906052334 | 73 | 32 | 2.6 | 5.2 | 0.00 | 0.00 | 0.00 | 87 | 1013.1 |
| 20260906051837 | 73 | 32 | 3.5 | 7.0 | 0.00 | 0.00 | 0.00 | 87 | 1013.1 |
| 20260906051337 | 73 | 17 | 2.6 | 7.0 | 0.00 | 0.00 | 0.00 | 87 | 1012.9 |
| 20260906051105 | 73 | 15 | 3.5 | 7.0 | 0.00 | 0.00 | 0.00 | 87 | 1012.9 |
| 20260906050331 | 73 | 65 | 4.3 | 8.7 | 0.00 | 0.00 | 0.00 | 87 | 1012.9 |
| 20260906050046 | 73 | 61 | 4.3 | 8.7 | 0.00 | 0.00 | 0.00 | 87 | 1012.7 |
| 20260906045317 | 73 | 78 | 4.3 | 9.6 | 0.00 | 0.00 | 0.00 | 87 | 1012.7 |
| 20260906044808 | 73 | 81 | 4.3 | 9.6 | 0.00 | 0.00 | 0.00 | 87 | 1012.7 |
| 20260906044524 | 73 | 59 | 4.3 | 8.7 | 0.00 | 0.00 | 0.00 | 87 | 1012.6 |
| 20260906044023 | 73 | 85 | 3.5 | 9.6 | 0.00 | 0.00 | 0.00 | 87 | 1012.6 |
| 20260906043252 | 73 | 61 | 3.5 | 9.6 | 0.00 | 0.00 | 0.00 | 87 | 1012.6 |
| 20260906043015 | 73 | 47 | 4.3 | 9.6 | 0.00 | 0.00 | 0.00 | 87 | 1012.5 |
| 20260906042240 | 73 | 15 | 4.3 | 12.2 | 0.00 | 0.00 | 0.00 | 87 | 1012.5 |
| 20260906041732 | 73 | 78 | 4.3 | 12.2 | 0.00 | 0.00 | 0.00 | 87 | 1012.5 |
| 20260906041224 | 73 | 65 | 4.3 | 8.7 | 0.00 | 0.00 | 0.00 | 87 | 1012.5 |
| 20260906040714 | 73 | 59 | 5.2 | 13.0 | 0.00 | 0.00 | 0.00 | 87 | 1012.5 |
| 20260906040206 | 73 | 37 | 5.2 | 13.0 | 0.00 | 0.00 | 0.00 | 87 | 1012.5 |
| 20260906035706 | 73 | 52 | 5.2 | 10.4 | 0.00 | 0.00 | 0.00 | 87 | 1012.4 |
| 20260906035205 | 73 | 52 | 5.2 | 10.4 | 0.00 | 0.00 | 0.00 | 87 | 1012.4 |
| 20260906034705 | 73 | 72 | 5.2 | 10.4 | 0.00 | 0.00 | 0.00 | 87 | 1012.4 |
| 20260906034206 | 73 | 46 | 4.3 | 10.4 | 0.00 | 0.00 | 0.00 | 87 | 1012.4 |
| 20260906033706 | 73 | 83 | 5.2 | 14.8 | 0.00 | 0.00 | 0.00 | 87 | 1012.4 |
| 20260906033208 | 73 | 107 | 5.2 | 14.8 | 0.00 | 0.00 | 0.00 | 87 | 1012.4 |
| 20260906032709 | 73 | 49 | 4.3 | 9.6 | 0.00 | 0.00 | 0.00 | 86 | 1012.4 |
| 20260906032207 | 73 | 60 | 6.1 | 11.3 | 0.00 | 0.00 | 0.00 | 86 | 1012.4 |
| 20260906031929 | 73 | 45 | 7.0 | 13.0 | 0.00 | 0.00 | 0.00 | 86 | 1012.4 |
| 20260906031159 | 73 | 46 | 5.2 | 13.0 | 0.00 | 0.00 | 0.00 | 87 | 1012.3 |
| 20260906030652 | 73 | 14 | 4.3 | 12.2 | 0.00 | 0.00 | 0.00 | 87 | 1012.3 |
| 20260906030643 | 73 | 36 | 5.2 | 12.2 | 0.00 | 0.00 | 0.00 | 87 | 1012.3 |
| 20260906025635 | 73 | 77 | 5.2 | 12.2 | 0.00 | 0.00 | 0.00 | 87 | 1012.3 |
| 20260906025134 | 73 | 85 | 5.2 | 12.2 | 0.00 | 0.00 | 0.00 | 87 | 1012.3 |
| 20260906024628 | 73 | 86 | 4.3 | 12.2 | 0.00 | 0.00 | 0.00 | 87 | 1012.3 |
| 20260906024122 | 73 | 47 | 3.5 | 9.6 | 0.00 | 0.00 | 0.00 | 86 | 1012.3 |
| 20260906023616 | 73 | 35 | 3.5 | 10.4 | 0.00 | 0.00 | 0.00 | 86 | 1012.3 |
| 20260906023111 | 73 | 52 | 4.3 | 10.4 | 0.00 | 0.00 | 0.00 | 86 | 1012.3 |
| 20260906022605 | 73 | 105 | 4.3 | 10.4 | 0.00 | 0.00 | 0.00 | 86 | 1012.4 |
| 20260906022055 | 73 | 355 | 5.2 | 10.4 | 0.00 | 0.00 | 0.00 | 86 | 1012.4 |
| 20260906021554 | 73 | 24 | 5.2 | 10.4 | 0.00 | 0.00 | 0.00 | 86 | 1012.4 |
| 20260906021048 | 73 | 71 | 4.3 | 9.6 | 0.00 | 0.00 | 0.00 | 86 | 1012.4 |
| 20260906020541 | 73 | 46 | 5.2 | 9.6 | 0.00 | 0.00 | 0.00 | 86 | 1012.4 |
| 20260906020036 | 73 | 23 | 4.3 | 10.4 | 0.00 | 0.00 | 0.00 | 86 | 1012.4 |
| 20260906015525 | 73 | 35 | 4.3 | 12.2 | 0.00 | 0.00 | 0.00 | 86 | 1012.4 |
| 20260906015023 | 73 | 36 | 4.3 | 12.2 | 0.00 | 0.00 | 0.00 | 86 | 1012.4 |
| 20260906014517 | 73 | 28 | 4.3 | 11.3 | 0.00 | 0.00 | 0.00 | 86 | 1012.4 |
| 20260906014009 | 73 | 64 | 5.2 | 12.2 | 0.00 | 0.00 | 0.00 | 86 | 1012.4 |
| 20260906013504 | 73 | 66 | 5.2 | 14.8 | 0.00 | 0.00 | 0.00 | 86 | 1012.4 |
| 20260906012958 | 73 | 45 | 6.1 | 14.8 | 0.00 | 0.00 | 0.00 | 86 | 1012.4 |
| 20260906012452 | 73 | 71 | 6.1 | 13.9 | 0.00 | 0.00 | 0.00 | 86 | 1012.4 |
| 20260906012203 | 73 | 5 | 6.1 | 13.9 | 0.00 | 0.00 | 0.00 | 85 | 1012.4 |
| 20260906011658 | 73 | 50 | 5.2 | 13.9 | 0.00 | 0.00 | 0.00 | 85 | 1012.3 |
| 20260906010934 | 73 | 80 | 3.5 | 10.4 | 0.00 | 0.00 | 0.00 | 84 | 1012.3 |
| 20260906010427 | 73 | 59 | 4.3 | 10.4 | 0.00 | 0.00 | 0.00 | 84 | 1012.3 |
| 20260906005923 | 73 | 355 | 4.3 | 11.3 | 0.00 | 0.00 | 0.00 | 83 | 1011.8 |
| 20260906005411 | 73 | 89 | 5.2 | 13.0 | 0.00 | 0.00 | 0.00 | 83 | 1011.8 |
| 20260906004909 | 73 | 30 | 5.2 | 13.0 | 0.00 | 0.00 | 0.00 | 83 | 1011.8 |
| 20260906004404 | 73 | 52 | 6.1 | 13.9 | 0.00 | 0.00 | 0.00 | 83 | 1011.7 |
| 20260906003858 | 73 | 84 | 6.1 | 13.9 | 0.00 | 0.00 | 0.00 | 82 | 1011.7 |
| 20260906003351 | 74 | 33 | 6.1 | 13.9 | 0.00 | 0.00 | 0.00 | 82 | 1011.7 |
| 20260906002845 | 74 | 57 | 6.1 | 13.9 | 0.00 | 0.00 | 0.00 | 82 | 1011.7 |
| 20260906002341 | 74 | 26 | 7.0 | 13.9 | 0.00 | 0.00 | 0.00 | 82 | 1011.7 |
| 20260906002049 | 74 | 64 | 6.1 | 12.2 | 0.00 | 0.00 | 0.00 | 82 | 1011.7 |
| 20260906001328 | 75 | 24 | 5.2 | 11.3 | 0.00 | 0.00 | 0.00 | 83 | 1011.8 |
| 20260906000816 | 75 | 342 | 4.3 | 11.3 | 0.00 | 0.00 | 0.00 | 82 | 1011.8 |
| 20260906000311 | 75 | 52 | 4.3 | 8.7 | 0.00 | 0.00 | 0.00 | 83 | 1011.8 |
| 20260906000031 | 75 | 37 | 5.2 | 11.3 | 0.00 | 0.00 | 0.00 | 83 | 1011.5 |
| 20260905235311 | 76 | 73 | 5.2 | 11.3 | 0.00 | 0.00 | 0.00 | 82 | 1011.5 |
| 20260905234811 | 76 | 46 | 4.3 | 9.6 | 0.00 | 0.00 | 0.00 | 82 | 1011.5 |
| 20260905234311 | 76 | 25 | 4.3 | 11.3 | 0.00 | 0.00 | 0.00 | 81 | 1011.4 |
| 20260905233811 | 76 | 100 | 4.3 | 11.3 | 0.00 | 0.00 | 0.00 | 80 | 1011.4 |
| 20260905233310 | 77 | 0 | 3.5 | 9.6 | 0.00 | 0.00 | 0.00 | 80 | 1011.4 |
| 20260905232810 | 77 | 82 | 4.3 | 11.3 | 0.00 | 0.00 | 0.00 | 80 | 1011.3 |
| 20260905232310 | 77 | 82 | 5.2 | 11.3 | 0.00 | 0.00 | 0.00 | 80 | 1011.3 |
| 20260905231806 | 77 | 5 | 6.1 | 12.2 | 0.00 | 0.00 | 0.00 | 79 | 1011.3 |
| 20260905231252 | 78 | 46 | 5.2 | 12.2 | 0.00 | 0.00 | 0.00 | 79 | 1011.0 |
| 20260905230742 | 78 | 49 | 5.2 | 11.3 | 0.00 | 0.00 | 0.00 | 78 | 1011.0 |
| 20260905230457 | 78 | 74 | 5.2 | 11.3 | 0.00 | 0.00 | 0.00 | 78 | 1011.0 |
| 20260905225952 | 79 | 46 | 5.2 | 11.3 | 0.00 | 0.00 | 0.00 | 78 | 1010.8 |
| 20260905225219 | 79 | 53 | 5.2 | 9.6 | 0.00 | 0.00 | 0.00 | 77 | 1010.8 |
| 20260905224716 | 79 | 94 | 5.2 | 9.6 | 0.00 | 0.00 | 0.00 | 77 | 1010.8 |
| 20260905224426 | 79 | 0 | 4.3 | 8.7 | 0.00 | 0.00 | 0.00 | 77 | 1010.9 |
| 20260905223924 | 79 | 37 | 3.5 | 10.4 | 0.00 | 0.00 | 0.00 | 78 | 1010.9 |
| 20260905223158 | 78 | 43 | 3.5 | 10.4 | 0.00 | 0.00 | 0.00 | 78 | 1010.9 |
| 20260905222652 | 78 | 63 | 4.3 | 8.7 | 0.00 | 0.00 | 0.00 | 78 | 1011.1 |
| 20260905222634 | 79 | 17 | 5.2 | 12.2 | 0.00 | 0.00 | 0.00 | 78 | 1011.1 |
| 20260905221636 | 79 | 48 | 5.2 | 12.2 | 0.00 | 0.00 | 0.00 | 77 | 1011.1 |
| 20260905221134 | 80 | 53 | 4.3 | 9.6 | 0.00 | 0.00 | 0.00 | 76 | 1011.0 |
| 20260905220629 | 80 | 128 | 3.5 | 9.6 | 0.00 | 0.00 | 0.00 | 76 | 1011.0 |
| 20260905220124 | 79 | 338 | 2.6 | 7.8 | 0.00 | 0.00 | 0.00 | 77 | 1011.0 |
| 20260905215617 | 79 | 47 | 3.5 | 9.6 | 0.00 | 0.00 | 0.00 | 77 | 1010.9 |
| 20260905215108 | 79 | 5 | 5.2 | 12.2 | 0.00 | 0.00 | 0.00 | 78 | 1010.9 |
| 20260905214830 | 79 | 35 | 5.2 | 12.2 | 0.00 | 0.00 | 0.00 | 77 | 1010.9 |
| 20260905214059 | 79 | 30 | 4.3 | 11.3 | 0.00 | 0.00 | 0.00 | 78 | 1010.9 |
| 20260905213552 | 79 | 41 | 5.2 | 10.4 | 0.00 | 0.00 | 0.00 | 78 | 1010.9 |
| 20260905213313 | 79 | 34 | 4.3 | 11.3 | 0.00 | 0.00 | 0.00 | 78 | 1010.9 |
| 20260905212540 | 79 | 49 | 5.2 | 11.3 | 0.00 | 0.00 | 0.00 | 77 | 1010.9 |
| 20260905212034 | 79 | 57 | 5.2 | 11.3 | 0.00 | 0.00 | 0.00 | 77 | 1010.9 |
| 20260905211524 | 80 | 348 | 5.2 | 10.4 | 0.00 | 0.00 | 0.00 | 77 | 1010.9 |
| 20260905211022 | 80 | 72 | 4.3 | 10.4 | 0.00 | 0.00 | 0.00 | 76 | 1010.9 |
| 20260905210516 | 81 | 23 | 3.5 | 9.6 | 0.00 | 0.00 | 0.00 | 76 | 1010.9 |
| 20260905210233 | 81 | 335 | 3.5 | 9.6 | 0.00 | 0.00 | 0.00 | 76 | 1010.9 |
| 20260905205505 | 81 | 26 | 5.2 | 11.3 | 0.00 | 0.00 | 0.00 | 75 | 1010.9 |
| 20260905204954 | 81 | 5 | 5.2 | 11.3 | 0.00 | 0.00 | 0.00 | 75 | 1010.9 |
| 20260905204453 | 82 | 71 | 5.2 | 10.4 | 0.00 | 0.00 | 0.00 | 75 | 1010.9 |
| 20260905203947 | 81 | 49 | 5.2 | 9.6 | 0.00 | 0.00 | 0.00 | 75 | 1010.9 |
| 20260905203704 | 81 | 19 | 5.2 | 10.4 | 0.00 | 0.00 | 0.00 | 75 | 1010.9 |
| 20260905202935 | 82 | 342 | 5.2 | 12.2 | 0.00 | 0.00 | 0.00 | 74 | 1010.9 |
| 20260905202907 | 82 | 72 | 4.3 | 12.2 | 0.00 | 0.00 | 0.00 | 74 | 1010.9 |
| 20260905201923 | 83 | 22 | 4.3 | 9.6 | 0.00 | 0.00 | 0.00 | 74 | 1010.9 |
| 20260905201632 | 83 | 355 | 4.3 | 9.6 | 0.00 | 0.00 | 0.00 | 74 | 1010.9 |
| 20260905200911 | 82 | 20 | 4.3 | 10.4 | 0.00 | 0.00 | 0.00 | 75 | 1010.9 |
| 20260905200405 | 82 | 5 | 5.2 | 10.4 | 0.00 | 0.00 | 0.00 | 74 | 1010.9 |
| 20260905195857 | 82 | 9 | 4.3 | 10.4 | 0.00 | 0.00 | 0.00 | 73 | 1010.8 |
| 20260905195352 | 83 | 14 | 5.2 | 12.2 | 0.00 | 0.00 | 0.00 | 74 | 1010.8 |
| 20260905194842 | 83 | 67 | 6.1 | 12.2 | 0.00 | 0.00 | 0.00 | 74 | 1010.8 |
| 20260905194338 | 83 | 41 | 6.1 | 12.2 | 0.00 | 0.00 | 0.00 | 73 | 1010.9 |
| 20260905193825 | 82 | 340 | 6.1 | 12.2 | 0.00 | 0.00 | 0.00 | 74 | 1010.9 |
| 20260905193315 | 82 | 27 | 4.3 | 12.2 | 0.00 | 0.00 | 0.00 | 74 | 1010.9 |
| 20260905192815 | 82 | 67 | 3.5 | 8.7 | 0.00 | 0.00 | 0.00 | 75 | 1011.0 |
| 20260905192315 | 82 | 47 | 4.3 | 11.3 | 0.00 | 0.00 | 0.00 | 74 | 1011.0 |
| 20260905191815 | 82 | 38 | 4.3 | 11.3 | 0.00 | 0.00 | 0.00 | 74 | 1011.0 |
| 20260905191546 | 82 | 88 | 4.3 | 11.3 | 0.00 | 0.00 | 0.00 | 75 | 1011.1 |
| 20260905191043 | 82 | 51 | 5.2 | 9.6 | 0.00 | 0.00 | 0.00 | 74 | 1011.1 |
| 20260905190536 | 83 | 78 | 4.3 | 8.7 | 0.00 | 0.00 | 0.00 | 74 | 1011.1 |
| 20260905185816 | 83 | 57 | 4.3 | 8.7 | 0.00 | 0.00 | 0.00 | 74 | 1011.1 |
| 20260905185317 | 83 | 333 | 4.3 | 10.4 | 0.00 | 0.00 | 0.00 | 73 | 1011.1 |
| 20260905184810 | 83 | 49 | 4.3 | 10.4 | 0.00 | 0.00 | 0.00 | 72 | 1011.1 |
| 20260905184525 | 83 | 49 | 4.3 | 7.8 | 0.00 | 0.00 | 0.00 | 73 | 1011.1 |
| 20260905183754 | 83 | 65 | 5.2 | 9.6 | 0.00 | 0.00 | 0.00 | 72 | 1011.1 |
| 20260905183243 | 84 | 11 | 4.3 | 11.3 | 0.00 | 0.00 | 0.00 | 72 | 1011.1 |
| 20260905182743 | 84 | 56 | 4.3 | 11.3 | 0.00 | 0.00 | 0.00 | 72 | 1011.0 |
| 20260905182235 | 84 | 17 | 4.3 | 10.4 | 0.00 | 0.00 | 0.00 | 73 | 1011.0 |
| 20260905181730 | 84 | 56 | 4.3 | 10.4 | 0.00 | 0.00 | 0.00 | 72 | 1011.0 |
| 20260905181225 | 84 | 5 | 4.3 | 10.4 | 0.00 | 0.00 | 0.00 | 72 | 1010.9 |
| 20260905180718 | 84 | 44 | 5.2 | 13.0 | 0.00 | 0.00 | 0.00 | 71 | 1010.9 |
| 20260905180212 | 85 | 46 | 5.2 | 13.0 | 0.00 | 0.00 | 0.00 | 71 | 1010.9 |
| 20260905175934 | 85 | 82 | 5.2 | 10.4 | 0.00 | 0.00 | 0.00 | 72 | 1010.9 |
| 20260905175425 | 85 | 44 | 4.3 | 11.3 | 0.00 | 0.00 | 0.00 | 71 | 1010.9 |
| 20260905174654 | 85 | 86 | 3.5 | 11.3 | 0.00 | 0.00 | 0.00 | 71 | 1010.9 |
| 20260905174411 | 85 | 48 | 4.3 | 11.3 | 0.00 | 0.00 | 0.00 | 72 | 1010.9 |
| 20260905173641 | 85 | 49 | 5.2 | 11.3 | 0.00 | 0.00 | 0.00 | 71 | 1010.9 |
| 20260905173131 | 85 | 346 | 5.2 | 13.0 | 0.00 | 0.00 | 0.00 | 72 | 1010.9 |
| 20260905172853 | 85 | 85 | 4.3 | 13.0 | 0.00 | 0.00 | 0.00 | 72 | 1011.0 |
| 20260905172124 | 85 | 63 | 5.2 | 13.9 | 0.00 | 0.00 | 0.00 | 71 | 1011.0 |
| 20260905171617 | 85 | 355 | 5.2 | 13.9 | 0.00 | 0.00 | 0.00 | 71 | 1011.0 |
| 20260905171328 | 85 | 73 | 4.3 | 10.4 | 0.00 | 0.00 | 0.00 | 73 | 1011.1 |
| 20260905171056 | 85 | 5 | 4.3 | 7.8 | 0.00 | 0.00 | 0.00 | 71 | 1011.1 |
| 20260905170059 | 85 | 16 | 4.3 | 8.7 | 0.00 | 0.00 | 0.00 | 72 | 1011.1 |
| 20260905165549 | 84 | 24 | 4.3 | 9.6 | 0.00 | 0.00 | 0.00 | 73 | 1011.2 |
| 20260905165047 | 84 | 64 | 4.3 | 13.9 | 0.00 | 0.00 | 0.00 | 73 | 1011.2 |
| 20260905164759 | 84 | 32 | 5.2 | 13.9 | 0.00 | 0.00 | 0.00 | 72 | 1011.2 |
| 20260905164304 | 84 | 74 | 4.3 | 10.4 | 0.00 | 0.00 | 0.00 | 73 | 1011.3 |
| 20260905163541 | 84 | 54 | 4.3 | 9.6 | 0.00 | 0.00 | 0.00 | 73 | 1011.3 |
| 20260905163044 | 83 | 42 | 4.3 | 9.6 | 0.00 | 0.00 | 0.00 | 73 | 1011.3 |
| 20260905162540 | 83 | 87 | 4.3 | 9.6 | 0.00 | 0.00 | 0.00 | 72 | 1011.3 |
| 20260905162306 | 83 | 31 | 4.3 | 8.7 | 0.00 | 0.00 | 0.00 | 73 | 1011.3 |
| 20260905161541 | 83 | 355 | 4.3 | 8.7 | 0.00 | 0.00 | 0.00 | 75 | 1011.3 |
| 20260905161041 | 83 | 36 | 5.2 | 11.3 | 0.00 | 0.00 | 0.00 | 75 | 1011.2 |
| 20260905160542 | 83 | 17 | 5.2 | 12.2 | 0.00 | 0.00 | 0.00 | 75 | 1011.2 |
| 20260905160304 | 83 | 58 | 4.3 | 12.2 | 0.00 | 0.00 | 0.00 | 76 | 1011.2 |
| 20260905155542 | 82 | 36 | 4.3 | 10.4 | 0.00 | 0.00 | 0.00 | 76 | 1011.1 |
| 20260905155039 | 82 | 57 | 3.5 | 9.6 | 0.00 | 0.00 | 0.00 | 77 | 1011.1 |
| 20260905154539 | 82 | 37 | 4.3 | 9.6 | 0.00 | 0.00 | 0.00 | 79 | 1011.1 |
| 20260905154041 | 82 | 66 | 3.5 | 9.6 | 0.00 | 0.00 | 0.00 | 79 | 1010.9 |
| 20260905153541 | 82 | 36 | 3.5 | 7.0 | 0.00 | 0.00 | 0.00 | 80 | 1010.9 |
| 20260905153043 | 82 | 55 | 4.3 | 10.4 | 0.00 | 0.00 | 0.00 | 81 | 1010.9 |
| 20260905152537 | 82 | 28 | 5.2 | 10.4 | 0.00 | 0.00 | 0.00 | 81 | 1010.9 |
| 20260905152027 | 81 | 46 | 5.2 | 9.6 | 0.00 | 0.00 | 0.00 | 81 | 1010.9 |
| 20260905151744 | 82 | 40 | 5.2 | 10.4 | 0.00 | 0.00 | 0.00 | 81 | 1010.9 |
| 20260905151028 | 82 | 95 | 5.2 | 10.4 | 0.00 | 0.00 | 0.00 | 81 | 1010.7 |
| 20260905150527 | 82 | 70 | 5.2 | 10.4 | 0.00 | 0.00 | 0.00 | 80 | 1010.7 |
| 20260905150027 | 82 | 64 | 5.2 | 8.7 | 0.00 | 0.00 | 0.00 | 80 | 1010.7 |
| 20260905145526 | 83 | 21 | 3.5 | 8.7 | 0.00 | 0.00 | 0.00 | 80 | 1010.8 |
| 20260905145029 | 83 | 0 | 2.6 | 4.3 | 0.00 | 0.00 | 0.00 | 81 | 1010.8 |
| 20260905144528 | 82 | 42 | 3.5 | 7.0 | 0.00 | 0.00 | 0.00 | 83 | 1010.8 |
| 20260905144026 | 81 | 33 | 3.5 | 7.0 | 0.00 | 0.00 | 0.00 | 83 | 1010.4 |
| 20260905143524 | 81 | 86 | 2.6 | 6.1 | 0.00 | 0.00 | 0.00 | 83 | 1010.4 |
| 20260905143018 | 81 | 12 | 2.6 | 5.2 | 0.00 | 0.00 | 0.00 | 83 | 1010.4 |
| 20260905142513 | 80 | 47 | 2.6 | 7.0 | 0.00 | 0.00 | 0.00 | 84 | 1010.2 |
| 20260905142008 | 80 | 67 | 3.5 | 7.8 | 0.00 | 0.00 | 0.00 | 84 | 1010.2 |
| 20260905141457 | 80 | 84 | 2.6 | 7.8 | 0.00 | 0.00 | 0.00 | 84 | 1010.2 |
| 20260905140954 | 80 | 44 | 2.6 | 7.0 | 0.00 | 0.00 | 0.00 | 84 | 1010.2 |
| 20260905140444 | 80 | 338 | 2.6 | 7.0 | 0.00 | 0.00 | 0.00 | 84 | 1010.2 |
| 20260905135942 | 80 | 34 | 2.6 | 5.2 | 0.00 | 0.00 | 0.00 | 85 | 1010.5 |
| 20260905135700 | 79 | 41 | 3.5 | 7.0 | 0.00 | 0.00 | 0.00 | 85 | 1010.5 |
| 20260905134926 | 79 | 39 | 3.5 | 7.0 | 0.00 | 0.00 | 0.00 | 85 | 1010.5 |
| 20260905134424 | 79 | 67 | 3.5 | 7.0 | 0.00 | 0.00 | 0.00 | 85 | 1010.8 |
| 20260905133918 | 79 | 52 | 2.6 | 7.0 | 0.00 | 0.00 | 0.00 | 86 | 1010.8 |
| 20260905133412 | 79 | 81 | 2.6 | 7.0 | 0.00 | 0.00 | 0.00 | 86 | 1010.8 |
| 20260905132908 | 79 | 50 | 3.5 | 7.0 | 0.00 | 0.00 | 0.00 | 87 | 1010.3 |
| 20260905132357 | 79 | 56 | 3.5 | 7.8 | 0.00 | 0.00 | 0.00 | 87 | 1010.3 |
| 20260905132128 | 78 | 83 | 3.5 | 7.8 | 0.00 | 0.00 | 0.00 | 87 | 1010.3 |
| 20260905131604 | 78 | 80 | 2.6 | 6.1 | 0.00 | 0.00 | 0.00 | 87 | 1010.2 |
| 20260905130842 | 78 | 15 | 2.6 | 6.1 | 0.00 | 0.00 | 0.00 | 87 | 1010.2 |
| 20260905130601 | 78 | 50 | 2.6 | 6.1 | 0.00 | 0.00 | 0.00 | 88 | 1010.2 |
| 20260905125832 | 78 | 49 | 2.6 | 6.1 | 0.00 | 0.00 | 0.00 | 88 | 1009.9 |
| 20260905125550 | 79 | 34 | 2.6 | 5.2 | 0.00 | 0.00 | 0.00 | 89 | 1009.9 |
| 20260905124815 | 79 | 49 | 1.7 | 5.2 | 0.00 | 0.00 | 0.00 | 90 | 1009.9 |
| 20260905124314 | 79 | 11 | 1.7 | 3.5 | 0.00 | 0.00 | 0.00 | 90 | 1009.7 |
| 20260905123807 | 78 | 46 | 0.9 | 3.5 | 0.00 | 0.00 | 0.00 | 90 | 1009.7 |
| 20260905123300 | 78 | 22 | 0.9 | 3.5 | 0.00 | 0.00 | 0.00 | 90 | 1009.7 |
| 20260905122755 | 78 | 355 | 0.9 | 3.5 | 0.00 | 0.00 | 0.00 | 90 | 1009.4 |
| 20260905122243 | 78 | 355 | 0.9 | 2.6 | 0.00 | 0.00 | 0.00 | 90 | 1009.4 |
| 20260905121742 | 78 | 320 | 0.9 | 2.6 | 0.00 | 0.00 | 0.00 | 90 | 1009.4 |
| 20260905121236 | 78 | 340 | 0.0 | 2.6 | 0.00 | 0.00 | 0.00 | 91 | 1009.3 |
| 20260905120731 | 78 | 319 | 0.0 | 1.7 | 0.00 | 0.00 | 0.00 | 91 | 1009.3 |
| 20260905120225 | 78 | 284 | 0.0 | 1.7 | 0.00 | 0.00 | 0.00 | 91 | 1009.3 |
| 20260905115935 | 78 | 33 | 0.0 | 1.7 | 0.00 | 0.00 | 0.00 | 90 | 1009.2 |
| 20260905115436 | 78 | 38 | 0.0 | 1.7 | 0.00 | 0.00 | 0.00 | 90 | 1009.2 |
| 20260905114703 | 78 | 38 | 0.0 | 1.7 | 0.00 | 0.00 | 0.00 | 90 | 1009.2 |
| 20260905114424 | 78 | 38 | 0.9 | 2.6 | 0.00 | 0.00 | 0.00 | 90 | 1009.2 |
| 20260905113656 | 78 | 38 | 0.9 | 2.6 | 0.00 | 0.00 | 0.00 | 90 | 1009.2 |
| 20260905113148 | 78 | 273 | 0.0 | 1.7 | 0.00 | 0.00 | 0.00 | 90 | 1009.2 |
| 20260905112642 | 78 | 240 | 0.0 | 0.9 | 0.00 | 0.00 | 0.00 | 90 | 1009.1 |
| 20260905112400 | 78 | 240 | 0.9 | 2.6 | 0.00 | 0.00 | 0.00 | 90 | 1009.1 |
| 20260905111636 | 78 | 240 | 1.7 | 3.5 | 0.00 | 0.00 | 0.00 | 90 | 1009.1 |
| 20260905111410 | 78 | 217 | 1.7 | 3.5 | 0.00 | 0.00 | 0.00 | 90 | 1009.0 |
| 20260905110857 | 78 | 249 | 0.9 | 2.6 | 0.00 | 0.00 | 0.00 | 90 | 1009.0 |
| 20260905110135 | 78 | 238 | 0.9 | 2.6 | 0.00 | 0.00 | 0.00 | 90 | 1009.0 |
| 20260905105904 | 78 | 238 | 0.9 | 1.7 | 0.00 | 0.00 | 0.00 | 90 | 1009.1 |
| 20260905105135 | 78 | 238 | 0.9 | 3.5 | 0.00 | 0.00 | 0.00 | 90 | 1009.1 |
| 20260905104858 | 78 | 238 | 0.9 | 3.5 | 0.00 | 0.00 | 0.00 | 90 | 1009.1 |
| 20260905104137 | 78 | 238 | 0.9 | 2.6 | 0.00 | 0.00 | 0.00 | 90 | 1009.2 |
| 20260905104110 | 78 | 238 | 0.9 | 2.6 | 0.00 | 0.00 | 0.00 | 90 | 1009.2 |
| 20260905103119 | 78 | 240 | 0.9 | 1.7 | 0.00 | 0.00 | 0.00 | 90 | 1009.2 |
| 20260905102609 | 78 | 240 | 0.0 | 0.9 | 0.00 | 0.00 | 0.00 | 90 | 1009.2 |
| 20260905102105 | 78 | 240 | 0.0 | 0.0 | 0.00 | 0.00 | 0.00 | 90 | 1009.2 |
| 20260905101558 | 78 | 240 | 0.0 | 0.0 | 0.00 | 0.00 | 0.00 | 90 | 1009.2 |
| 20260905101052 | 78 | 240 | 0.0 | 0.0 | 0.00 | 0.00 | 0.00 | 90 | 1009.2 |
| 20260905100542 | 78 | 240 | 0.0 | 0.0 | 0.00 | 0.00 | 0.00 | 90 | 1009.2 |
| 20260905100039 | 78 | 240 | 0.0 | 0.9 | 0.00 | 0.00 | 0.00 | 90 | 1009.2 |
| 20260905095534 | 78 | 240 | 0.0 | 0.9 | 0.00 | 0.00 | 0.00 | 89 | 1009.1 |
| 20260905095250 | 78 | 240 | 0.0 | 1.7 | 0.00 | 0.00 | 0.00 | 89 | 1009.1 |
| 20260905094522 | 78 | 240 | 0.9 | 1.7 | 0.00 | 0.00 | 0.00 | 89 | 1009.1 |
| 20260905094015 | 78 | 240 | 0.9 | 1.7 | 0.00 | 0.00 | 0.00 | 89 | 1009.1 |
| 20260905093729 | 78 | 240 | 0.9 | 1.7 | 0.00 | 0.00 | 0.00 | 89 | 1009.1 |